Home > Weather > Strasbourg > Past weeks

Flag for France Weather for the Past 2 Weeks in Strasbourg, France

Now
39 °F

Light rain. Mostly cloudy.


Feels Like: 39 °F
Forecast: 38 / 47 °F
Wind: No wind

Location: Strasbourg Airport

Current Time: Feb 12, 2016 at 10:35:59 PM

Latest Report: Feb 12, 2016 at 10:00 PM


Visibility: N/A

Pressure: 29.33 "Hg

Humidity: 87%

Dew point: 36 °F

Location of StrasbourgLocation

Historic Weather in Strasbourg — Graph

°F

Strasbourg Temperature Yesterday

Maximum temperature yesterday: 46 °F (at 3:00 PM)
Minimum temperature yesterday: 36 °F (at 9:00 PM)
Average temperature yesterday: 41 °F

High & Low Weather Summary for the Past Weeks

 TemperatureHumidityPressure
High59 °F (Feb 1, 1:00 AM)100% (Jan 28, 11:30 PM)30.48 "Hg (Jan 28, 11:30 PM)
Low32 °F (Feb 6, 2:00 AM)50% (Feb 11, 4:00 PM)29.15 "Hg (Feb 9, 3:30 PM)
Average44 °F79%29.96 "Hg
* Reported Jan 28 9:00 PM — Feb 12 9:30 PM, Strasbourg, Weather by CustomWeather, © 2016

Note: Actual official high and low records may vary slightly from our data, if they occured in-between our weather recording intervals... More about our weather records

Advertising

Strasbourg Weather History for the Previous 24 Hours

 ConditionsComfort  
Time TempWeatherWind HumidityBarometerVisibility
9:30 PM
Fri, Feb 12
39 °FDrizzle. Overcast.No wind87%29.33 "HgN/A
9:00 PM39 °FPartly cloudy.3 mph87%29.33 "HgN/A
8:30 PM39 °FLight rain. Partly cloudy.No wind87%29.36 "HgN/A
8:00 PM39 °FLight rain. Mostly cloudy.1 mph87%29.36 "HgN/A
7:30 PM39 °FLight rain. Overcast.3 mph87%29.36 "HgN/A
7:00 PM39 °FLight rain. Passing clouds.3 mph87%29.36 "HgN/A
6:30 PM39 °FLight rain. Mostly cloudy.6 mph87%29.36 "HgN/A
6:00 PM41 °FLight rain. Mostly cloudy.10 mph81%29.36 "HgN/A
5:30 PM41 °FLight rain. Mostly cloudy.8 mph76%29.36 "HgN/A
5:00 PM43 °FLight rain. Partly sunny.9 mph71%29.36 "HgN/A
4:30 PM45 °FLight rain. Partly sunny.7 mph61%29.36 "HgN/A
4:00 PM45 °FPassing clouds.7 mph61%29.36 "HgN/A
3:30 PM45 °FPartly sunny.7 mph66%29.36 "HgN/A
3:00 PM45 °FPassing clouds.6 mph71%29.39 "HgN/A
2:30 PM45 °FPassing clouds.7 mph71%29.39 "HgN/A
2:00 PM43 °FSunny.2 mph76%29.42 "Hg10 mi
1:30 PM43 °FSunny.3 mph71%29.45 "Hg10 mi
1:00 PM43 °FPartly sunny.1 mph71%29.47 "HgN/A
12:30 PM43 °FPassing clouds.2 mph71%29.50 "HgN/A
12:00 PM41 °FPartly sunny.2 mph76%29.53 "HgN/A
11:30 AM41 °FPartly sunny.5 mph81%29.56 "HgN/A
11:00 AM39 °FOvercast.3 mph81%29.56 "HgN/A
10:30 AM37 °FOvercast.5 mph87%29.59 "HgN/A
10:00 AM37 °FLow clouds.5 mph87%29.59 "HgN/A
9:30 AM36 °FLow clouds.6 mph93%29.62 "HgN/A
9:00 AM36 °FLow clouds.6 mph87%29.62 "HgN/A
8:30 AM34 °FPartly sunny.5 mph93%29.62 "HgN/A
8:00 AM34 °FPartly sunny.5 mph93%29.65 "HgN/A
7:30 AM34 °FPassing clouds.7 mph93%29.65 "HgN/A
7:00 AM34 °FPassing clouds.8 mph93%29.68 "HgN/A
6:30 AM34 °FPartly cloudy.6 mph93%29.68 "HgN/A
6:00 AM34 °FPassing clouds.5 mph93%29.68 "HgN/A
5:30 AM34 °FPassing clouds.6 mph93%29.68 "HgN/A
5:00 AM36 °FMostly cloudy.5 mph93%29.71 "HgN/A
4:30 AM36 °FPartly cloudy.5 mph93%29.71 "HgN/A
4:00 AM36 °FOvercast.5 mph93%29.71 "HgN/A
3:30 AM36 °FOvercast.5 mph93%29.71 "HgN/A
3:00 AM36 °FMostly cloudy.3 mph93%29.71 "HgN/A
2:30 AM36 °FDrizzle. Mostly cloudy.5 mph93%29.71 "HgN/A
2:00 AM37 °FLight rain. Partly cloudy.5 mph81%29.74 "HgN/A
1:30 AM36 °FLight rain. Partly cloudy.7 mph87%29.74 "HgN/A
1:00 AM36 °FPassing clouds.2 mph81%29.74 "HgN/A
12:30 AM34 °FPassing clouds.5 mph87%29.74 "HgN/A
12:00 AM34 °FClear.3 mph87%29.74 "Hg10 mi
10:30 PM
Thu, Feb 11
36 °FClear.1 mph81%29.74 "Hg10 mi
10:00 PM36 °FClear.3 mph81%29.74 "Hg10 mi
Weather by CustomWeather, © 2016

See weather overviewHow to use our weather pages